Weather History for Topeka, KS

Change the Weather History Date:

Friday, March 14, 2014

  Actual Average Record
Temperature  
Mean Temperature 53 °F 44 °F  
Max Temperature 68 °F 56 °F 84 °F (2012)
Min Temperature 37 °F 33 °F 4 °F (1897)
Degree Days  
Heating Degree Days 12 21  
Month to date heating degree days 380 325  
Since 1 July heating degree days 4702 4292  
Cooling Degree Days 0 0  
Month to date cooling degree days 0 0  
Year to date cooling degree days 0 0  
Growing Degree Days 5 (Base 50)    
Moisture  
Dew Point 22 °F    
Average Humidity 35    
Maximum Humidity 54    
Minimum Humidity 16    
Precipitation  
Precipitation 0.00 in 0.08 in 1.75 in (1944)
Month to date precipitation 0.17 0.96  
Year to date precipitation 1.83 3.14  
Snow  
Snow 0.00 in 0.00 in 8.40 in (1960)
Month to date snowfall 2.4 0.9  
Year to date snowfall 21.3 10.3  
Since 1 July snowfall 25.6 16.8  
Snow Depth 0.00 in    
Sea Level Pressure  
Sea Level Pressure 29.89 in    
Wind  
Wind Speed 9 mph (WNW)    
Max Wind Speed 23 mph    
Max Gust Speed 32 mph    
Visibility 10 miles    
Events      
T = Trace of Precipitation, MM = Missing Value Source: NWS Daily Summary

Daily Weather History Graph

Daily Weather History Graph

Search for Another Location

Airport:

Trip Planner

Search our weather history database for the weather conditions in past years. The results will help you decide how hot, cold, wet, or windy it might be!

Date:

Astronomy

Mar. 14, 2014 Rise Set
Actual Time 7:35 AM CDT 7:28 PM CDT
Civil Twilight 7:08 AM CDT 7:55 PM CDT
Nautical Twilight 6:37 AM CDT 8:26 PM CDT
Astronomical Twilight 6:06 AM CDT 8:57 PM CDT
Moon 5:52 PM CDT (3/14) 6:15 AM CDT (3/14)
Length of Visible Light 12h 46m
Length of Day
11h 53m
Waxing Gibbous, 96% of the Moon is Illuminated
Mar 14
Waxing Gibbous
Mar 16
Full
Mar 23
Last Quarter
Mar 30
New
Apr 7
First Quarter

Hourly Weather History & Observations

Time (CDT) Temp. Dew Point Humidity Pressure Visibility Wind Dir Wind Speed Gust Speed Precip Events Conditions
12:53 AM 55.9 °F 19.9 °F 25% 29.77 in 10.0 mi SSW 10.4 mph 18.4 mph N/A   Clear
1:53 AM 55.0 °F 19.9 °F 25% 29.75 in 10.0 mi SSW 13.8 mph 21.9 mph N/A   Clear
2:53 AM 55.9 °F 19.9 °F 25% 29.73 in 10.0 mi SSW 18.4 mph 31.1 mph N/A   Clear
3:53 AM 54.0 °F 21.0 °F 28% 29.71 in 10.0 mi SSW 18.4 mph 28.8 mph N/A   Clear
4:53 AM 54.0 °F 21.0 °F 28% 29.72 in 10.0 mi SW 10.4 mph - N/A   Clear
5:53 AM 55.0 °F 21.0 °F 27% 29.76 in 10.0 mi WSW 13.8 mph 20.7 mph N/A   Clear
6:53 AM 53.1 °F 21.0 °F 29% 29.79 in 10.0 mi WSW 9.2 mph - N/A   Clear
7:53 AM 51.1 °F 23.0 °F 33% 29.82 in 10.0 mi West 8.1 mph - N/A   Clear
8:53 AM 52.0 °F 24.1 °F 34% 29.88 in 10.0 mi WNW 10.4 mph - N/A   Clear
9:53 AM 52.0 °F 27.0 °F 38% 29.92 in 10.0 mi NW 11.5 mph - N/A   Clear
10:53 AM 57.9 °F 25.0 °F 28% 29.94 in 10.0 mi NNW 9.2 mph - N/A   Clear
11:53 AM 61.0 °F 27.0 °F 27% 29.95 in 10.0 mi NW 17.3 mph 24.2 mph N/A   Clear
12:53 PM 63.0 °F 23.0 °F 22% 29.96 in 10.0 mi NNW 18.4 mph - N/A   Clear
1:53 PM 64.0 °F 24.1 °F 22% 29.96 in 10.0 mi NNW 10.4 mph - N/A   Clear
2:53 PM 66.0 °F 19.9 °F 17% 29.94 in 10.0 mi NNW 16.1 mph 23.0 mph N/A   Clear
3:53 PM 66.9 °F 19.9 °F 17% 29.94 in 10.0 mi NNW 11.5 mph - N/A   Clear
4:53 PM 66.0 °F 19.0 °F 17% 29.95 in 10.0 mi NW 11.5 mph 17.3 mph N/A   Clear
5:53 PM 64.9 °F 19.0 °F 17% 29.95 in 10.0 mi NW 9.2 mph - N/A   Clear
6:53 PM 62.1 °F 21.0 °F 21% 29.96 in 10.0 mi NW 5.8 mph - N/A   Clear
7:53 PM 57.9 °F 19.0 °F 22% 29.97 in 10.0 mi Calm Calm - N/A   Clear
8:53 PM 50.0 °F 21.9 °F 33% 29.99 in 10.0 mi Calm Calm - N/A   Clear
9:53 PM 46.0 °F 23.0 °F 40% 30.01 in 10.0 mi Calm Calm - N/A   Clear
10:53 PM 42.1 °F 24.1 °F 49% 30.01 in 10.0 mi Calm Calm - N/A   Clear
11:53 PM 39.0 °F 25.0 °F 57% 30.00 in 10.0 mi Calm Calm - N/A   Clear